Weather History for 03772 - June, 2013

Change the Weather History Date:

Sunday, June 30, 2013

  Actual Average Record
Temperature  
Mean Temperature 69 °F -  
Max Temperature 81 °F 71 °F - ()
Min Temperature 57 °F 55 °F - ()
Cooling Degree Days 4    
Growing Degree Days 19 (Base 50)    
Moisture  
Dew Point 56 °F    
Average Humidity 69    
Maximum Humidity 100    
Minimum Humidity 30    
Precipitation  
Precipitation 0.00 in - - ()
Sea Level Pressure  
Sea Level Pressure 30.17 in    
Wind  
Wind Speed 10 mph ()    
Max Wind Speed 20 mph    
Max Gust Speed 25 mph    
Visibility 6.8 miles    
Events      
T = Trace of Precipitation, MM = Missing Value Source: Averaged Metar Reports

Daily Weather History Graph

Daily Weather History Graph

Search for Another Location

Airport or City:

Trip Planner

Search our weather history database for the weather conditions in past years. The results will help you decide how hot, cold, wet, or windy it might be!

Date:

Astronomy

Jun. 30, 2013 Rise Set
Actual Time 4:48 AM BST 9:22 PM BST
Civil Twilight 4:01 AM BST 10:09 PM BST
Nautical Twilight 2:48 AM BST 11:21 PM BST
Astronomical Twilight 1:37 AM BST 12:33 AM BST
Moon 12:18 AM BST 1:47 PM BST
Length of Visible Light 18h 08m
Length of Day
16h 33m
Waning Gibbous, 48% of the Moon is Illuminated
Jun 30
Waning Gibbous
Jul 8
New
Jul 16
First Quarter
Jul 22
Full
Jul 29
Last Quarter

Hourly Weather History & Observations

Time (BST) Temp. Dew Point Humidity Pressure Visibility Wind Dir Wind Speed Gust Speed Precip Events Conditions
12:20 AM 64.4 °F 57.2 °F 77% 30.24 in 6.2 mi West 8.1 mph - N/A   Mostly Cloudy
12:50 AM 65 °F 57 °F 67% 30.26 in 17 mi West 6.9 mph - -   Mostly Cloudy
12:50 AM 64.4 °F 57.2 °F 77% 30.24 in 6.2 mi West 6.9 mph - N/A   Mostly Cloudy
1:20 AM 64.4 °F 59.0 °F 83% 30.24 in 6.2 mi West 6.9 mph - N/A   Mostly Cloudy
1:50 AM 64.4 °F 59.0 °F 83% 30.24 in 6.2 mi West 8.1 mph - N/A   Mostly Cloudy
2:20 AM 62.6 °F 59.0 °F 88% 30.24 in 6.2 mi West 8.1 mph - N/A   Overcast
2:50 AM 60.8 °F 57.2 °F 88% 30.24 in 6.2 mi West 9.2 mph - N/A   Mostly Cloudy
3:20 AM 59.0 °F 57.2 °F 94% 30.24 in 6.2 mi West 8.1 mph - N/A   Unknown
3:50 AM 60 °F 56 °F 83% 30.23 in 9 mi WSW 8.1 mph - -  
3:50 AM 59.0 °F 57.2 °F 94% 30.24 in - West 8.1 mph - N/A   Clear
4:20 AM 57.2 °F 57.2 °F 100% 30.21 in - West 9.2 mph - N/A   Clear
4:50 AM 57.2 °F 57.2 °F 100% 30.21 in - West 8.1 mph - N/A   Clear
5:20 AM 57.2 °F 55.4 °F 94% 30.21 in 5.6 mi West 6.9 mph - N/A   Unknown
5:50 AM 57.2 °F 57.2 °F 100% 30.21 in 5.6 mi West 6.9 mph - N/A   Unknown
6:20 AM 57.2 °F 57.2 °F 100% 30.21 in 1.1 mi West 10.4 mph - N/A   Haze
6:50 AM 58 °F 57 °F 94% 30.23 in 4 mi West 9.2 mph - -   Light Haze
6:50 AM 57.2 °F 57.2 °F 100% 30.21 in 1.1 mi West 9.2 mph - N/A   Haze
7:20 AM 59.0 °F 59.0 °F 100% 30.24 in 3.1 mi West 9.2 mph - N/A   Haze
7:50 AM 59.0 °F 59.0 °F 100% 30.24 in 3.7 mi West 9.2 mph - N/A   Mostly Cloudy
8:20 AM 59.0 °F 57.2 °F 94% 30.24 in 5.0 mi West 11.5 mph - N/A   Mostly Cloudy
8:50 AM 62.6 °F 57.2 °F 82% 30.24 in 6.2 mi West 9.2 mph - N/A   Mostly Cloudy
9:20 AM 64.4 °F 59.0 °F 83% 30.21 in 6.2 mi WSW 8.1 mph - N/A   Scattered Clouds
9:50 AM 67 °F 57 °F 63% 30.22 in 11 mi WSW 6.9 mph - -   Scattered Clouds
9:50 AM 66.2 °F 59.0 °F 78% 30.21 in 6.2 mi WSW 6.9 mph - N/A   Partly Cloudy
10:20 AM 69.8 °F 59.0 °F 68% 30.21 in 6.2 mi West 10.4 mph - N/A   Partly Cloudy
10:50 AM 71.6 °F 59.0 °F 64% 30.21 in 6.2 mi WSW 13.8 mph 25.3 mph N/A   Partly Cloudy
11:20 AM 73.4 °F 57.2 °F 57% 30.18 in 6.2 mi West 16.1 mph - N/A   Scattered Clouds
11:50 AM 75.2 °F 57.2 °F 53% 30.18 in 6.2 mi WSW 17.3 mph - N/A   Partly Cloudy
12:20 PM 75.2 °F 55.4 °F 50% 30.15 in 6.2 mi West 19.6 mph - N/A   Partly Cloudy
12:50 PM 76 °F 55 °F 37% 30.17 in 17 mi West 16.1 mph - -  
12:50 PM 75.2 °F 55.4 °F 50% 30.15 in 6.2 mi West 17.3 mph - N/A   Partly Cloudy
1:20 PM 77.0 °F 55.4 °F 47% 30.15 in 6.2 mi West 15.0 mph - N/A   Partly Cloudy
1:50 PM 77.0 °F 55.4 °F 47% 30.15 in 6.2 mi West 17.3 mph - N/A   Partly Cloudy
2:20 PM 78.8 °F 55.4 °F 44% 30.12 in - West 15.0 mph - N/A   Clear
2:50 PM 78.8 °F 53.6 °F 42% 30.12 in - West 17.3 mph - N/A   Clear
3:20 PM 78.8 °F 53.6 °F 42% 30.12 in - West 15.0 mph - N/A   Clear
3:50 PM 79 °F 53 °F 30% 30.12 in 22 mi West 16.1 mph - -  
3:50 PM 78.8 °F 53.6 °F 42% 30.12 in - WSW 17.3 mph - N/A   Clear
4:20 PM 77.0 °F 55.4 °F 47% 30.09 in - West 15.0 mph - N/A   Clear
4:50 PM 77.0 °F 55.4 °F 47% 30.09 in 6.2 mi WSW 17.3 mph - N/A   Partly Cloudy
5:20 PM 77.0 °F 55.4 °F 47% 30.09 in - West 15.0 mph - N/A   Clear
5:50 PM 77.0 °F 53.6 °F 44% 30.09 in - WSW 16.1 mph - N/A   Clear
6:20 PM 75.2 °F 53.6 °F 47% 30.09 in - WSW 15.0 mph - N/A   Clear
6:50 PM 74 °F 53 °F 37% 30.09 in 25 mi WSW 17.3 mph - -  
6:50 PM 73.4 °F 53.6 °F 50% 30.09 in - West 17.3 mph - N/A   Clear
7:20 PM 71.6 °F 53.6 °F 53% 30.09 in 6.2 mi West 15.0 mph - N/A   Partly Cloudy
7:50 PM 69.8 °F 53.6 °F 56% 30.09 in - West 15.0 mph - N/A   Clear
8:20 PM 66.2 °F 53.6 °F 64% 30.09 in - West 13.8 mph - N/A   Clear
8:50 PM 66.2 °F 53.6 °F 64% 30.09 in - West 12.7 mph - N/A   Clear
9:20 PM 64.4 °F 55.4 °F 73% 30.09 in - West 11.5 mph - N/A   Clear
9:50 PM 64 °F 53 °F 59% 30.10 in 17 mi West 15.0 mph - -  
9:50 PM 62.6 °F 55.4 °F 77% 30.09 in - West 13.8 mph - N/A   Clear
10:20 PM 60.8 °F 53.6 °F 77% 30.09 in - West 13.8 mph - N/A   Clear
10:50 PM 59.0 °F 51.8 °F 77% 30.09 in 6.2 mi West 12.7 mph - N/A   Partly Cloudy
11:20 PM 59.0 °F 51.8 °F 77% 30.09 in 6.2 mi West 16.1 mph - N/A   Partly Cloudy
11:50 PM 57.2 °F 51.8 °F 82% 30.09 in - West 11.5 mph - N/A   Clear